STARLINK-1788 (46689 NORAD) Tracking and Keplerian Element Data

This shows tracking and keplerian element data for the satellite.

Feedback or suggestion? Click here.




ElementValue
Catalog46689
NameSTARLINK-1788
Epoch Orbit1457
Epoch Day18.25002315
Epoch Year2021
RAAN40.2814
Inclination53.0545
Eccentricity0.000157
Argument of Perigee60.1659
Mean Anonmoly242.8979
Mean Motion15.0640135
Decay Rate-0.00027232
L11 46689U 20073V 21018.25002315 -.00027232 00000-0 -18162-2 0 9993
L22 46689 53.0545 40.2814 0001570 60.1659 242.8979 15.06401350 14579

Live tracking and technical data element details for STARLINK-1788 (NORAD 46689). STARLINK-1788 can be tracked NOW for your location showing map with azimuth and elevation plus other details from your city location.

Track the satellite on the map from your city or location and see movement details for azimuth, elevation, latitude, longitude, range, height, and movement on the map or in text.







IsCatalogInMostPopularTable: catalog: 46689, numindb: 29
Update: records affected: 1



GetName: 46689 STARLINK-1788

Hit Count: updated at: Tue, 19 Jan 2021 02:48:48 GMT